Change the Weather History Date:

Tuesday, August 12, 2014

  Actual Average Record
Temperature  
Mean Temperature 75 °F -  
Max Temperature 86 °F 91 °F 105 °F (1956)
Min Temperature 63 °F 70 °F 53 °F (1967)
Cooling Degree Days 10    
Growing Degree Days 25 (Base 50)    
Moisture  
Dew Point 61 °F    
Average Humidity 64    
Maximum Humidity 90    
Minimum Humidity 37    
Precipitation  
Precipitation 0.00 in - - ()
Sea Level Pressure  
Sea Level Pressure 30.06 in    
Wind  
Wind Speed 7 mph (NNE)    
Max Wind Speed 14 mph    
Max Gust Speed 18 mph    
Visibility 10 miles    
Events      
Averages and records for this station are not official NWS values.
T = Trace of Precipitation, MM = Missing Value Source: NWS Daily Summary

Daily Weather History Graph

Daily Weather History Graph

Search for Another Location

Airport or City:

Trip Planner

Search our weather history database for the weather conditions in past years. The results will help you decide how hot, cold, wet, or windy it might be!

Date:

Astronomy

Aug. 12, 2014 Rise Set
Actual Time 6:41 AM CDT 8:14 PM CDT
Civil Twilight 6:14 AM CDT 8:41 PM CDT
Nautical Twilight 5:41 AM CDT 9:13 PM CDT
Astronomical Twilight 5:07 AM CDT 9:47 PM CDT
Moon 9:31 PM CDT (8/12) 8:52 AM CDT (8/12)
Length of Visible Light 14h 27m
Length of Day
13h 33m
Waning Gibbous, 94% of the Moon is Illuminated
Aug 12
Waning Gibbous
Aug 17
Last Quarter
Aug 25
New
Sep 2
First Quarter
Sep 8
Full

Hourly Weather History & Observations

Time (CDT) Temp. Heat Index Dew Point Humidity Pressure Visibility Wind Dir Wind Speed Gust Speed Precip Events Conditions
12:53 AM 75.9 °F - 69.1 °F 79% 30.04 in 10.0 mi North - - 0.00 in   Clear
1:53 AM 75.0 °F - 68.0 °F 79% 30.04 in 10.0 mi North 5.8 mph - N/A   Clear
2:53 AM 73.0 °F - 66.0 °F 79% 30.04 in 10.0 mi North 5.8 mph - N/A   Mostly Cloudy
3:53 AM 72.0 °F - 64.0 °F 76% 30.04 in 10.0 mi NNE 8.1 mph - N/A   Clear
4:53 AM 71.1 °F - 63.0 °F 75% 30.04 in 10.0 mi North 10.4 mph - N/A   Partly Cloudy
5:53 AM 69.1 °F - 63.0 °F 81% 30.06 in 10.0 mi NNE 4.6 mph - N/A   Partly Cloudy
6:53 AM 68.0 °F - 62.1 °F 81% 30.07 in 10.0 mi NNE 3.5 mph - N/A   Partly Cloudy
7:53 AM 71.1 °F - 63.0 °F 75% 30.09 in 10.0 mi North 6.9 mph - N/A   Partly Cloudy
8:53 AM 73.9 °F - 63.0 °F 68% 30.10 in 10.0 mi North 8.1 mph - N/A   Partly Cloudy
9:53 AM 75.9 °F - 60.1 °F 58% 30.11 in 10.0 mi NNE 9.2 mph - N/A   Clear
10:53 AM 78.1 °F - 59.0 °F 52% 30.11 in 10.0 mi NNE 9.2 mph - N/A   Clear
12:53 PM 82.0 °F 82.0 °F 57.9 °F 44% 30.10 in 10.0 mi NNW 11.5 mph - N/A   Clear
1:53 PM 82.9 °F 82.6 °F 57.9 °F 42% 30.08 in 10.0 mi NNE 8.1 mph - N/A   Clear
2:53 PM 84.9 °F 83.9 °F 57.0 °F 38% 30.07 in 10.0 mi North 13.8 mph - N/A   Clear
3:53 PM 84.9 °F 83.7 °F 55.9 °F 37% 30.04 in 10.0 mi NE 8.1 mph 18.4 mph N/A   Clear
4:53 PM 86.0 °F 84.9 °F 57.0 °F 37% 30.04 in 10.0 mi NNE 10.4 mph - N/A   Clear
5:53 PM 84.9 °F 83.9 °F 57.0 °F 38% 30.03 in 10.0 mi North 8.1 mph - N/A   Clear
6:53 PM 82.9 °F 82.4 °F 57.0 °F 41% 30.02 in 10.0 mi Variable 4.6 mph - N/A   Clear
7:53 PM 75.9 °F - 62.1 °F 62% 30.01 in 10.0 mi East 3.5 mph - N/A   Clear
8:53 PM 71.1 °F - 61.0 °F 70% 30.03 in 10.0 mi ENE 4.6 mph - N/A   Clear
9:53 PM 69.1 °F - 61.0 °F 75% 30.04 in 10.0 mi NNE 3.5 mph - N/A   Partly Cloudy
10:53 PM 64.9 °F - 61.0 °F 87% 30.06 in 10.0 mi Calm Calm - N/A   Partly Cloudy
11:53 PM 63.0 °F - 60.1 °F 90% 30.06 in 10.0 mi ESE 3.5 mph - N/A   Scattered Clouds